Hourly Data Report for March 15, 2020

All times are specified in Local Standard Time (LST). Add 1 hour to adjust for Daylight Saving Time where and when it is observed.

OTTAWA INTL A
ONTARIO
Current Station Operator: NAVCAN

45°19'00.000" N
75°40'00.000" W
114.90 m
6106001
71628
YOW

Download Data

Hourly Data (March 2020)
Hourly Data Report for March 15, 2020
TIME Temp Definition
°C
Dew Point Definition
°C
Rel Hum Definition
%
Wind Dir Definition
10's deg

Wind Spd Definition
km/h
Visibility Definition
km
Stn Press Definition
kPa
Hmdx Definition


Wind Chill Definition


Weather Definition


00:00 -2.2 -13.5 42 34 22 24.1 101.80   -8 LegendNANA
01:00 -3.2 -13.8 44 34 32 24.1 101.86   -11 Mostly Cloudy
02:00 -4.3 -13.9 48 35 16 24.1 101.90   -10 LegendNANA
03:00 -5.3 -13.5 53 32 16 24.1 101.97   -11 LegendNANA
04:00 -6.2 -13.6 56 34 19 24.1 102.05   -13 Clear
05:00 -7.3 -13.8 60 33 21 24.1 102.17   -15 LegendNANA
06:00 -8.2 -13.8 64 34 20 24.1 102.23   -16 LegendNANA
07:00 -8.6 -14.0 66 34 24 24.1 102.31   -17 Mainly Clear
08:00 -8.4 -14.3 63 34 16 24.1 102.38   -15 LegendNANA
09:00 -7.5 -13.7 61 34 17 24.1 102.44   -14 LegendNANA
10:00 -6.7 -13.2 60 32 17 24.1 102.46   -13 Clear
11:00 -5.7 -13.9 53 31 15 24.1 102.47   -11 LegendNANA
12:00 -4.8 -14.2 48 33 8 24.1 102.44   -8 LegendNANA
13:00 -3.4 -13.8 45 34 15 24.1 102.39   -9 Clear
14:00 -2.7 -13.2 45 33 17 24.1 102.35   -8 LegendNANA
15:00 -2.5 -15.5 36 33 18 24.1 102.38   -8 LegendNANA
16:00 -2.1 -17.5 30 35 22 24.1 102.33   -8 Clear
17:00 -2.0 -17.2 31 33 17 24.1 102.35   -7 LegendNANA
18:00 -2.5 -17.5 31 35 15 24.1 102.37   -7 LegendNANA
19:00 -3.2 -16.6 35 1 14 24.1 102.39   -8 Clear
20:00 -3.8 -16.2 38 2 13 24.1 102.40   -9 LegendNANA
21:00 -4.1 -16.6 38 1 14 24.1 102.41   -9 LegendNANA
22:00 -5.2 -15.9 43 2 13 24.1 102.41   -10 Clear
23:00 -5.5 -16.1 44 3 16 24.1 102.43   -11 LegendNANA

Notes on Data Quality.

Legend

  • E = Estimated
  • M = Missing
  • NA = Not Available*
  • [empty] = Indicates an unobserved value
Date modified: